Voltar ao catálogo

IRIDIUM 33 DEB

AtivoPO
NORAD 33776·DEBRIS·🇺🇸 United States

Lançado Sep 14, 1997 de Baikonur Cosmodrome

Loading…

Próximas Passagens (próximas 24 horas)

TLE

AtualizadoSource: Space-Track

Época: Sep 14, 2026, 22:08 UTC

1 33776U 97051P   26257.92230719  .00000440  00000-0  13720-3 0  9997
2 33776  86.4068 324.7673 0014796  19.7908 158.9348 14.38629627920527

Acompanhe IRIDIUM 33 DEB em tempo real com AllMySat

Download on the App Store